Location: Unspecified
(0.0000°N, 0.0000°E)
Time: 06:14:07
(UTC+02:00)

SJ-6B - Visible Passes

Search period start: 26 April 2017 00:00
Search period end: 06 May 2017 00:00
Orbit: 512 x 583 km, 97.8° (Epoch: 24 April)

Date Brightness Start Highest point End Pass type
(mag) Time Alt. Az. Time Alt. Az. Time Alt. Az.
26 Apr 2.7 21:09:44 31° SE 21:11:21 57° ENE 21:15:09 10° N visible
27 Apr 3.0 21:04:46 28° SE 21:06:25 46° ENE 21:10:10 10° N visible
28 Apr 3.2 20:59:47 25° SE 21:01:30 38° ENE 21:05:09 10° N visible
29 Apr 3.5 20:54:48 22° SE 20:56:35 32° ENE 21:00:05 10° NNE visible
30 Apr 3.8 20:49:49 19° ESE 20:51:39 27° ENE 20:55:00 10° NNE visible
01 May 4.0 20:44:49 16° ESE 20:46:44 23° ENE 20:49:51 10° NNE visible
01 May 5.9 22:20:29 10° WSW 22:21:09 11° WSW 22:22:08 10° W visible
02 May 4.2 20:39:49 14° ESE 20:41:48 19° ENE 20:44:40 10° NNE visible
02 May 5.7 22:15:30 13° WSW 22:16:13 13° WSW 22:18:05 10° WNW visible
03 May 4.4 20:34:49 12° ESE 20:36:53 16° ENE 20:39:25 10° NE visible
03 May 5.5 22:10:30 15° WSW 22:11:17 16° W 22:13:41 10° WNW visible
04 May 4.6 20:29:54 10° ESE 20:31:57 14° ENE 20:34:02 10° NE visible
04 May 5.3 22:05:29 17° WSW 22:06:21 19° WSW 22:09:08 10° NW visible
05 May 4.8 20:25:36 10° E 20:27:02 12° ENE 20:28:28 10° ENE visible
05 May 5.0 22:00:29 20° WSW 22:01:25 22° W 22:04:31 10° NW visible
